Location: Asheville, NC
(35.6000°N, 82.5500°W)
Time: 04:58:09
(UTC-04:00)

Vanguard 1 Rocket - Pass Details

Date: 10 February 2018
Orbit: 652 x 4225 km, 34.3° (Epoch: 20 May)

Event Time Altitude Azimuth Distance (km) Brightness Sun altitude
Rises 20:45:19 0° 167° (SSE) 6,825 11.7 -32.6°
Enters shadow 20:52:24 - 148° (SSE) 6,657 11.5 -34.0°
Reaches altitude 10° 20:55:48 10° 139° (SE) 6,688 - -34.7°
Maximum altitude 21:01:59 12° 123° (ESE) 6,902 - -35.9°
Drops below altitude 10° 21:08:36 10° 107° (ESE) 7,307 - -37.3°
Sets 21:21:41 0° 82° (E) 8,440 - -39.9°
